LANDSAT 5               
1 14780U 84021A   19257.92576515  .00000059  00000-0  11703-4 0  9999
2 14780  98.1355  40.4565 0089987 353.3815   6.6206 14.91936997422541
UOSAT 2 (UO-11)         
1 14781U 84021B   19258.15064020  .00000032  00000-0  99914-5 0  9991
2 14781  97.6073 278.6658 0009354  37.8281 322.3589 14.83105864911875